This is the latest recevied weather packets stored in our database for station/object KG4LKY-5. If no packets are shown the sender has not sent any weather packets the latest 10 day(s).
| Time | Temp. | Humidity | Pressure | Rain* | Wind** | Luminosity | Snow |
|---|---|---|---|---|---|---|---|
| 1778062741 | 15.56° C | 100% | 1008.9 hPa | 5.08 mm | - | - | - |
| 1778062441 | 15.56° C | 100% | 1009 hPa | 4.83 mm | - | - | - |
| 1778062140 | 15° C | 100% | 1008.8 hPa | 4.57 mm | - | - | - |
| 1778061840 | 15.56° C | 100% | 1008.5 hPa | 4.57 mm | - | - | - |
| 1778061540 | 15.56° C | 100% | 1008.7 hPa | 4.06 mm | - | - | - |
| 1778061239 | 15° C | 100% | 1008.7 hPa | 3.05 mm | - | - | - |
| 1778060939 | 15.56° C | 100% | 1008.3 hPa | 2.54 mm | - | - | - |
| 1778060639 | 16.11° C | 100% | 1008.3 hPa | 2.54 mm | - | - | - |
| 1778060339 | 15.56° C | 100% | 1008.5 hPa | 2.54 mm | - | - | - |
| 1778060038 | 15.56° C | 100% | 1008 hPa | 2.54 mm | - | - | - |
| 1778059738 | 15.56° C | 100% | 1008 hPa | 2.29 mm | - | - | - |
| 1778059438 | 15.56° C | 100% | 1008.1 hPa | 2.29 mm | - | - | - |
| 1778059137 | 15.56° C | 100% | 1008.1 hPa | 2.03 mm | - | - | - |
| 1778058837 | 16.11° C | 100% | 1008.1 hPa | 1.52 mm | - | - | - |
| 1778058537 | 16.11° C | 100% | 1008 hPa | 1.02 mm | - | - | - |
| 1778058236 | 16.67° C | 100% | 1007.9 hPa | 1.02 mm | - | - | - |
| 1778057637 | 16.11° C | 100% | 1007.7 hPa | 0.76 mm | - | - | - |
| 1778057034 | 16.11° C | 100% | 1007.4 hPa | 0.76 mm | - | - | - |
| 1778056733 | 16.11° C | 100% | 1007.5 hPa | 0.76 mm | - | - | - |
| 1778056432 | 16.11° C | 100% | 1007.2 hPa | 0.76 mm | - | - | - |
| 1778056132 | 16.11° C | 100% | 1007.4 hPa | 0.76 mm | - | - | - |
| 1778055831 | 16.67° C | 100% | 1007.3 hPa | 0.76 mm | - | - | - |
| 1778055231 | 16.67° C | 100% | 1007.4 hPa | 0.76 mm | - | - | - |
| 1778054931 | 17.22° C | 94% | 1007.5 hPa | 0.76 mm | - | - | - |
| 1778054630 | 16.67° C | 92% | 1007.6 hPa | 0.76 mm | - | - | - |
* Rain since midnight (hover to see other rain measurements)
** Current wind speed in m/s (hover to see current wind gust speed)